Location: Eastchurch
(51.4000°N, 0.8667°E)
Time: 06:37:56
(UTC+00:00)

Cosmos 2228 Rocket - Pass Details

Date: 19 January 2026
Orbit: 612 x 647 km, 82.5° (Epoch: 18 February)

Event Time Altitude Azimuth Distance (km) Brightness Sun altitude
Rises 18:04:12 0° 155° (SSE) 2,924 6.4 -15.2°
Reaches altitude 10° 18:06:44 10° 143° (SE) 2,015 5.4 -15.6°
Enters shadow 18:09:17 23° 111° (ESE) 1,358 4.3 -16.0°
